AUA61HK LOWW-LDSP

Flight info

Callsign AUA61HK
Flight time 0h 54m
Altitude 37000
Route STEIN3C/29 STEIN DCT NOHAT DCT NEKIN DCT NIVES/N0440F390 DCT NUPSO
Aircraft A320/M-SDE3FGHIRWY/LB1

Departure

Time 2026-04-26 17:48
Airport Vienna International Airport (LOWW)

Arrival

Time 2026-04-26 18:42
Airport Split Saint Jerome Airport (LDSP)
Time Latitude Longitude Altitude Speed Heading
2026-04-26 17:18 48.11763 16.56627 624 ft 0 kts 27°
2026-04-26 17:38 48.11758 16.56623 623 ft 2 kts 27°
2026-04-26 17:38 48.11741 16.56609 616 ft 3 kts 30°
2026-04-26 17:39 48.11729 16.56599 616 ft 3 kts 34°
2026-04-26 17:39 48.11713 16.56581 625 ft 3 kts 46°
2026-04-26 17:39 48.11702 16.56559 619 ft 3 kts 80°
2026-04-26 17:39 48.11701 16.56542 624 ft 0 kts 116°
2026-04-26 17:42 48.11696 16.56559 620 ft 2 kts 116°
2026-04-26 17:43 48.11689 16.56581 616 ft 2 kts 116°
2026-04-26 17:43 48.11684 16.56596 613 ft 1 kts 116°
2026-04-26 17:43 48.11681 16.56606 622 ft 3 kts 116°
2026-04-26 17:43 48.11664 16.56657 614 ft 8 kts 116°
2026-04-26 17:44 48.11635 16.56748 612 ft 10 kts 116°
2026-04-26 17:44 48.11606 16.56836 614 ft 10 kts 116°
2026-04-26 17:44 48.11568 16.56953 621 ft 15 kts 115°
2026-04-26 17:44 48.11519 16.57103 621 ft 16 kts 116°
2026-04-26 17:45 48.11471 16.57251 620 ft 15 kts 116°
2026-04-26 17:45 48.11433 16.57367 613 ft 11 kts 118°
2026-04-26 17:45 48.11369 16.57372 609 ft 9 kts 205°
2026-04-26 17:45 48.11313 16.57333 609 ft 8 kts 205°
2026-04-26 17:46 48.11265 16.57297 617 ft 7 kts 206°
2026-04-26 17:46 48.11225 16.57267 616 ft 6 kts 206°
2026-04-26 17:46 48.11188 16.57240 609 ft 7 kts 203°
2026-04-26 17:46 48.11132 16.57201 609 ft 10 kts 207°
2026-04-26 17:47 48.11070 16.57153 613 ft 8 kts 207°
2026-04-26 17:47 48.11054 16.57112 611 ft 7 kts 264°
2026-04-26 17:47 48.11078 16.57034 614 ft 10 kts 296°
2026-04-26 17:47 48.11197 16.56669 609 ft 75 kts 295°
2026-04-26 17:48 48.11519 16.55677 619 ft 135 kts 296°
2026-04-26 17:48 48.11994 16.54219 781 ft 164 kts 300°
2026-04-26 17:48 48.12311 16.52611 1481 ft 166 kts 266°
2026-04-26 17:48 48.11737 16.51116 2185 ft 177 kts 215°
2026-04-26 17:49 48.10600 16.50168 2571 ft 198 kts 210°
2026-04-26 17:49 48.09379 16.49028 3060 ft 218 kts 214°
2026-04-26 17:49 48.08059 16.47706 3568 ft 239 kts 210°
2026-04-26 17:49 48.06405 16.47048 4083 ft 260 kts 177°
2026-04-26 17:50 48.04534 16.47372 4656 ft 278 kts 172°
2026-04-26 17:50 48.02607 16.47857 5567 ft 284 kts 173°
2026-04-26 17:50 48.00646 16.48344 6537 ft 287 kts 175°
2026-04-26 17:50 47.98650 16.48743 7411 ft 290 kts 182°
2026-04-26 17:51 47.96653 16.48511 8251 ft 288 kts 198°
2026-04-26 17:51 47.94781 16.47507 9111 ft 286 kts 212°
2026-04-26 17:51 47.93014 16.46104 9962 ft 290 kts 213°
2026-04-26 17:51 47.91191 16.44676 10506 ft 307 kts 210°
2026-04-26 17:52 47.89084 16.43564 10777 ft 336 kts 197°
2026-04-26 17:52 47.86693 16.43200 11305 ft 354 kts 182°
2026-04-26 17:52 47.84223 16.43686 12006 ft 364 kts 168°
2026-04-26 17:52 47.81761 16.44667 12731 ft 368 kts 167°
2026-04-26 17:53 47.79268 16.45662 13465 ft 373 kts 167°
2026-04-26 17:53 47.76747 16.46662 14166 ft 377 kts 167°
2026-04-26 17:53 47.74196 16.47668 14813 ft 381 kts 167°
2026-04-26 17:54 47.69025 16.49697 16104 ft 388 kts 167°
2026-04-26 17:54 47.66438 16.50710 16734 ft 391 kts 167°
2026-04-26 17:54 47.63767 16.51562 17358 ft 393 kts 175°
2026-04-26 17:54 47.61037 16.52013 17985 ft 396 kts 176°
2026-04-26 17:55 47.58285 16.52447 18609 ft 399 kts 176°
2026-04-26 17:55 47.55516 16.52876 19179 ft 401 kts 176°
2026-04-26 17:55 47.52738 16.53302 19766 ft 403 kts 176°
2026-04-26 17:55 47.49941 16.53730 20340 ft 405 kts 176°
2026-04-26 17:56 47.47131 16.54163 20919 ft 407 kts 176°
2026-04-26 17:56 47.41461 16.55032 22083 ft 411 kts 176°
2026-04-26 17:57 47.35727 16.55914 23206 ft 416 kts 176°
2026-04-26 17:57 47.32835 16.56363 23736 ft 419 kts 176°
2026-04-26 17:57 47.29931 16.56811 24159 ft 421 kts 176°
2026-04-26 17:57 47.27003 16.57261 24560 ft 424 kts 176°
2026-04-26 17:58 47.18106 16.58638 25715 ft 432 kts 177°
2026-04-26 17:59 47.12090 16.59549 26442 ft 437 kts 177°
2026-04-26 17:59 47.09052 16.60009 26805 ft 440 kts 177°
2026-04-26 17:59 47.05998 16.60478 27167 ft 442 kts 177°
2026-04-26 17:59 47.02929 16.60950 27521 ft 445 kts 177°
2026-04-26 18:00 46.99884 16.61417 27866 ft 447 kts 177°
2026-04-26 18:00 46.96744 16.61897 28206 ft 449 kts 177°
2026-04-26 18:00 46.93628 16.62367 28556 ft 451 kts 177°
2026-04-26 18:00 46.90539 16.62834 28877 ft 454 kts 177°
2026-04-26 18:01 46.87348 16.63321 29194 ft 456 kts 177°
2026-04-26 18:01 46.84227 16.63798 29501 ft 458 kts 177°
2026-04-26 18:01 46.81048 16.64283 29802 ft 460 kts 177°
2026-04-26 18:01 46.77854 16.64766 30092 ft 463 kts 177°
2026-04-26 18:02 46.74637 16.65249 30350 ft 465 kts 177°
2026-04-26 18:02 46.72458 16.65574 30513 ft 466 kts 177°
2026-04-26 18:02 46.68166 16.66215 30830 ft 468 kts 177°
2026-04-26 18:02 46.64918 16.66702 31062 ft 470 kts 177°
2026-04-26 18:03 46.61667 16.67190 31302 ft 471 kts 177°
2026-04-26 18:03 46.58404 16.67681 31598 ft 470 kts 177°
2026-04-26 18:03 46.55162 16.68173 31942 ft 468 kts 177°
2026-04-26 18:03 46.51931 16.68663 32291 ft 466 kts 177°
2026-04-26 18:04 46.48714 16.69145 32643 ft 464 kts 177°
2026-04-26 18:04 46.45521 16.69594 32999 ft 461 kts 180°
2026-04-26 18:04 46.42332 16.69516 33346 ft 454 kts 189°
2026-04-26 18:05 46.36309 16.67288 34025 ft 443 kts 207°
2026-04-26 18:05 46.33528 16.65385 34328 ft 441 kts 208°
2026-04-26 18:05 46.30759 16.63470 34596 ft 440 kts 208°
2026-04-26 18:05 46.27995 16.61573 34858 ft 439 kts 208°
2026-04-26 18:06 46.25268 16.59712 35110 ft 439 kts 208°
2026-04-26 18:06 46.22523 16.57844 35358 ft 438 kts 208°
2026-04-26 18:06 46.19756 16.55961 35586 ft 437 kts 208°
2026-04-26 18:06 46.17000 16.54082 35821 ft 437 kts 208°
2026-04-26 18:07 46.14256 16.52208 36044 ft 436 kts 208°
2026-04-26 18:07 46.11515 16.50336 36269 ft 436 kts 208°
2026-04-26 18:07 46.08783 16.48480 36481 ft 435 kts 208°
2026-04-26 18:07 46.06920 16.47219 36619 ft 435 kts 208°
2026-04-26 18:08 46.04774 16.45768 36796 ft 435 kts 208°
2026-04-26 18:08 46.02173 16.44021 36982 ft 434 kts 208°
2026-04-26 18:08 45.99437 16.42172 37150 ft 434 kts 208°
2026-04-26 18:09 45.93990 16.38472 37177 ft 432 kts 208°
2026-04-26 18:09 45.88549 16.34786 37170 ft 432 kts 208°
2026-04-26 18:10 45.83101 16.31118 37166 ft 432 kts 208°
2026-04-26 18:10 45.77539 16.27845 37167 ft 437 kts 194°
2026-04-26 18:11 45.71473 16.26781 37161 ft 440 kts 189°
2026-04-26 18:11 45.65421 16.25876 37154 ft 440 kts 189°
2026-04-26 18:12 45.59324 16.24986 37152 ft 440 kts 189°
2026-04-26 18:12 45.53233 16.24082 37148 ft 440 kts 189°
2026-04-26 18:13 45.47135 16.23163 37141 ft 440 kts 189°
2026-04-26 18:13 45.41042 16.22240 37134 ft 441 kts 189°
2026-04-26 18:14 45.34932 16.21322 37130 ft 441 kts 189°
2026-04-26 18:14 45.28829 16.20418 37131 ft 441 kts 189°
2026-04-26 18:15 45.22720 16.19510 37131 ft 441 kts 189°
2026-04-26 18:15 45.16613 16.18597 37128 ft 441 kts 189°
2026-04-26 18:16 45.10492 16.17693 37129 ft 442 kts 189°
2026-04-26 18:16 45.01321 16.16338 36878 ft 442 kts 189°
2026-04-26 18:17 44.98259 16.15883 36611 ft 443 kts 189°
2026-04-26 18:17 44.95196 16.15426 36350 ft 444 kts 188°
2026-04-26 18:17 44.92117 16.14968 36093 ft 445 kts 188°
2026-04-26 18:17 44.89040 16.14516 35827 ft 445 kts 188°
2026-04-26 18:18 44.85956 16.14068 35583 ft 446 kts 188°
2026-04-26 18:18 44.82861 16.13619 35339 ft 447 kts 188°
2026-04-26 18:18 44.79759 16.13167 34630 ft 451 kts 188°
2026-04-26 18:18 44.76629 16.12707 33691 ft 455 kts 188°
2026-04-26 18:19 44.73475 16.12245 32958 ft 453 kts 188°
2026-04-26 18:19 44.70356 16.11793 32315 ft 449 kts 188°
2026-04-26 18:19 44.67210 16.11335 31085 ft 459 kts 187°
2026-04-26 18:19 44.64047 16.10873 30175 ft 463 kts 187°
2026-04-26 18:20 44.60827 16.10403 29604 ft 455 kts 187°
2026-04-26 18:20 44.57741 16.09951 28991 ft 449 kts 187°
2026-04-26 18:20 44.54660 16.09498 28465 ft 442 kts 187°
2026-04-26 18:20 44.53634 16.09348 28291 ft 440 kts 187°
2026-04-26 18:21 44.48603 16.08614 27279 ft 433 kts 187°
2026-04-26 18:21 44.45625 16.08185 26775 ft 427 kts 187°
2026-04-26 18:21 44.42684 16.07765 26294 ft 422 kts 187°
2026-04-26 18:21 44.39777 16.07350 25816 ft 416 kts 187°
2026-04-26 18:22 44.36912 16.06936 25351 ft 412 kts 187°
2026-04-26 18:22 44.34079 16.06525 24888 ft 408 kts 187°
2026-04-26 18:22 44.31270 16.06119 24442 ft 404 kts 186°
2026-04-26 18:22 44.28488 16.05719 23995 ft 400 kts 186°
2026-04-26 18:23 44.26658 16.05457 23703 ft 398 kts 186°
2026-04-26 18:23 44.23908 16.05066 23184 ft 395 kts 186°
2026-04-26 18:23 44.21186 16.04675 22669 ft 393 kts 186°
2026-04-26 18:23 44.18473 16.04284 22151 ft 390 kts 186°
2026-04-26 18:24 44.15779 16.03897 21669 ft 388 kts 186°
2026-04-26 18:24 44.13103 16.03513 21177 ft 385 kts 185°
2026-04-26 18:24 44.10450 16.03131 20783 ft 381 kts 186°
2026-04-26 18:24 44.07830 16.02755 20403 ft 376 kts 185°
2026-04-26 18:25 44.05240 16.02388 19933 ft 374 kts 185°
2026-04-26 18:25 44.02654 16.02021 19447 ft 373 kts 185°
2026-04-26 18:25 44.00083 16.01656 18975 ft 372 kts 185°
2026-04-26 18:25 43.97508 16.01288 18500 ft 371 kts 185°
2026-04-26 18:26 43.94942 16.00929 17979 ft 370 kts 185°
2026-04-26 18:26 43.92388 16.00896 17555 ft 365 kts 170°
2026-04-26 18:26 43.89952 16.01701 17295 ft 357 kts 167°
2026-04-26 18:26 43.87500 16.01920 17028 ft 354 kts 185°
2026-04-26 18:27 43.85055 16.01470 16774 ft 353 kts 187°
2026-04-26 18:27 43.82626 16.01000 16510 ft 352 kts 187°
2026-04-26 18:27 43.80203 16.00529 16138 ft 353 kts 187°
2026-04-26 18:27 43.77740 16.00050 15346 ft 362 kts 188°
2026-04-26 18:28 43.75241 15.99565 14558 ft 361 kts 188°
2026-04-26 18:28 43.72769 15.99081 13788 ft 356 kts 188°
2026-04-26 18:28 43.70332 15.98603 12936 ft 351 kts 188°
2026-04-26 18:28 43.67938 15.98135 12119 ft 345 kts 187°
2026-04-26 18:29 43.65609 15.97679 11327 ft 339 kts 187°
2026-04-26 18:29 43.63291 15.97226 10547 ft 333 kts 187°
2026-04-26 18:29 43.61013 15.96779 9763 ft 328 kts 187°
2026-04-26 18:29 43.58769 15.96338 8924 ft 323 kts 187°
2026-04-26 18:30 43.56561 15.95904 8314 ft 317 kts 187°
2026-04-26 18:30 43.54374 15.95476 7819 ft 317 kts 187°
2026-04-26 18:30 43.52188 15.95053 7317 ft 316 kts 187°
2026-04-26 18:30 43.50010 15.94711 6835 ft 315 kts 187°
2026-04-26 18:31 43.47948 15.93746 6341 ft 315 kts 211°
2026-04-26 18:31 43.46358 15.91714 5944 ft 310 kts 232°
2026-04-26 18:31 43.45135 15.89351 5874 ft 293 kts 234°
2026-04-26 18:31 43.44012 15.87102 5884 ft 280 kts 235°
2026-04-26 18:32 43.42917 15.84902 5891 ft 278 kts 235°
2026-04-26 18:32 43.41829 15.82713 5895 ft 277 kts 235°
2026-04-26 18:32 43.40747 15.80533 5889 ft 271 kts 235°
2026-04-26 18:32 43.39717 15.78450 5895 ft 258 kts 235°
2026-04-26 18:33 43.38712 15.76421 5782 ft 256 kts 232°
2026-04-26 18:33 43.37454 15.74790 5658 ft 252 kts 208°
2026-04-26 18:33 43.35821 15.74026 5533 ft 249 kts 184°
2026-04-26 18:33 43.34122 15.74279 5411 ft 246 kts 159°
2026-04-26 18:34 43.32672 15.75489 5291 ft 245 kts 135°
2026-04-26 18:34 43.31725 15.77416 5171 ft 246 kts 111°
2026-04-26 18:34 43.31443 15.79719 5048 ft 247 kts 86°
2026-04-26 18:34 43.31884 15.81989 4921 ft 249 kts 65°
2026-04-26 18:35 43.32638 15.84136 4800 ft 249 kts 65°
2026-04-26 18:35 43.33391 15.86281 4661 ft 249 kts 65°
2026-04-26 18:35 43.34140 15.88426 4544 ft 249 kts 65°
2026-04-26 18:35 43.34885 15.90573 4412 ft 249 kts 65°
2026-04-26 18:36 43.35625 15.92717 4282 ft 248 kts 65°
2026-04-26 18:36 43.36363 15.94860 4158 ft 248 kts 65°
2026-04-26 18:36 43.37103 15.97006 4037 ft 247 kts 65°
2026-04-26 18:36 43.37820 15.99091 3910 ft 236 kts 64°
2026-04-26 18:37 43.38514 16.01103 3787 ft 231 kts 64°
2026-04-26 18:37 43.39204 16.03086 3664 ft 228 kts 62°
2026-04-26 18:37 43.40022 16.04933 3543 ft 225 kts 54°
2026-04-26 18:37 43.40923 16.06601 3423 ft 215 kts 52°
2026-04-26 18:38 43.41820 16.08197 3298 ft 207 kts 51°
2026-04-26 18:38 43.42672 16.09712 3209 ft 193 kts 51°
2026-04-26 18:38 43.43463 16.11124 3103 ft 181 kts 51°
2026-04-26 18:38 43.44237 16.12502 2901 ft 184 kts 50°
2026-04-26 18:39 43.45025 16.13909 2676 ft 189 kts 51°
2026-04-26 18:39 43.45821 16.15333 2412 ft 185 kts 50°
2026-04-26 18:39 43.46568 16.16670 2197 ft 168 kts 50°
2026-04-26 18:39 43.47241 16.17874 2005 ft 151 kts 50°
2026-04-26 18:40 43.47867 16.18993 1800 ft 145 kts 50°
2026-04-26 18:40 43.48478 16.20085 1618 ft 143 kts 50°
2026-04-26 18:40 43.49081 16.21164 1431 ft 142 kts 51°
2026-04-26 18:40 43.49677 16.22231 1245 ft 141 kts 51°
2026-04-26 18:41 43.50270 16.23294 1054 ft 139 kts 51°
2026-04-26 18:41 43.50859 16.24349 858 ft 138 kts 51°
2026-04-26 18:41 43.51452 16.25388 708 ft 137 kts 50°
2026-04-26 18:41 43.52034 16.26429 525 ft 136 kts 52°
2026-04-26 18:42 43.52584 16.27500 363 ft 136 kts 52°
2026-04-26 18:42 43.53181 16.28522 150 ft 136 kts 50°
2026-04-26 18:42 43.53728 16.29484 77 ft 112 kts 51°
2026-04-26 18:42 43.54031 16.30033 63 ft 19 kts 54°
2026-04-26 18:43 43.54049 16.30084 59 ft 3 kts 98°
2026-04-26 18:43 43.54031 16.30101 58 ft 5 kts 156°
2026-04-26 18:43 43.54002 16.30097 62 ft 3 kts 195°
2026-04-26 18:43 43.53997 16.30095 61 ft 0 kts 195°
2026-04-26 18:44 43.53973 16.30086 60 ft 6 kts 195°
2026-04-26 18:44 43.53921 16.30065 68 ft 7 kts 199°
2026-04-26 18:44 43.53889 16.30029 62 ft 6 kts 233°
2026-04-26 18:44 43.53868 16.29990 68 ft 5 kts 233°
2026-04-26 18:45 43.53850 16.29957 68 ft 4 kts 232°
2026-04-26 18:45 43.53835 16.29931 66 ft 3 kts 232°
2026-04-26 18:45 43.53822 16.29909 68 ft 4 kts 232°
2026-04-26 18:45 43.53807 16.29881 61 ft 3 kts 233°
2026-04-26 18:46 43.53795 16.29858 64 ft 3 kts 233°
2026-04-26 18:46 43.53776 16.29823 64 ft 8 kts 233°
2026-04-26 18:46 43.53735 16.29749 68 ft 10 kts 233°
2026-04-26 18:46 43.53698 16.29684 68 ft 6 kts 224°
2026-04-26 18:47 43.53662 16.29687 61 ft 5 kts 143°
2026-04-26 18:47 43.53661 16.29724 68 ft 3 kts 83°
2026-04-26 18:47 43.53659 16.29753 68 ft 3 kts 95°
2026-04-26 18:47 43.53659 16.29758 68 ft 0 kts 95°